FW6455 Weather Reports


Display with metric or nautical units.
time (UTC)temp
F
wind
direction
speed
MPH
gust
MPH
rain 1hr
in
rain 24hr
in
rain mn
in
humidity
%
barometer
mb
20260504081608 62 199 0.0 2.0 0.00 0.00 0.00 73 1015.2
20260504081040 62 206 0.0 2.0 0.00 0.00 0.00 73 1015.3
20260504080539 62 219 0.0 2.0 0.00 0.00 0.00 73 1015.4
20260504050538 64 0 0.0 1.0 0.00 0.00 0.00 68 1017.5
20260504045538 64 192 0.0 1.0 0.00 0.00 0.00 67 1017.5
20260504045038 64 209 0.0 1.0 0.00 0.00 0.00 67 1017.5
20260504044545 65 195 0.0 1.0 0.00 0.00 0.00 68 1017.5
20260504044038 64 195 0.0 1.0 0.00 0.00 0.00 67 1017.6
20260504043541 65 0 0.0 1.0 0.00 0.00 0.00 67 1017.6
20260504043048 64 204 0.0 0.0 0.00 0.00 0.00 67 1017.7
20260504042539 65 0 0.0 1.0 0.00 0.00 0.00 67 1017.7
20260504042041 65 0 0.0 1.0 0.00 0.00 0.00 67 1017.7
20260504041546 65 191 0.0 1.0 0.00 0.00 0.00 67 1017.7
20260504041038 65 0 0.0 0.0 0.00 0.00 0.00 67 1017.5
20260504040538 65 200 0.0 1.0 0.00 0.00 0.00 67 1017.6
20260504040126 65 0 0.0 1.0 0.00 0.00 0.00 67 1017.6
20260504035538 65 205 0.0 0.0 0.00 0.00 0.00 67 1017.6
20260504035038 65 0 0.0 0.0 0.00 0.00 0.00 66 1017.5
20260504034547 65 0 0.0 0.0 0.00 0.00 0.00 66 1017.5
20260504034037 65 0 0.0 0.0 0.00 0.00 0.00 66 1017.6
20260504033541 65 0 0.0 0.0 0.00 0.00 0.00 66 1017.7
20260504033050 65 0 0.0 0.0 0.00 0.00 0.00 65 1017.5
20260504032537 65 0 0.0 0.0 0.00 0.00 0.00 65 1017.6
20260504032037 66 0 0.0 0.0 0.00 0.00 0.00 64 1017.4
20260504031556 66 0 0.0 0.0 0.00 0.00 0.00 64 1017.5
20260504031038 66 0 0.0 0.0 0.00 0.00 0.00 63 1017.5
20260504030537 66 0 0.0 0.0 0.00 0.00 0.00 63 1017.4
20260504030047 66 0 0.0 0.0 0.00 0.00 0.00 63 1017.3
20260504025538 66 0 0.0 0.0 0.00 0.00 0.00 62 1017.3
20260504025037 67 0 0.0 0.0 0.00 0.00 0.00 61 1017.4
20260504024555 67 0 0.0 0.0 0.00 0.00 0.00 61 1017.6
20260504024036 67 0 0.0 0.0 0.00 0.00 0.00 60 1017.4
20260504023537 68 0 0.0 0.0 0.00 0.00 0.00 60 1017.5
20260504023049 68 0 0.0 0.0 0.00 0.00 0.00 59 1017.5
20260504022537 68 0 0.0 0.0 0.00 0.00 0.00 59 1017.5
20260504022037 69 0 0.0 0.0 0.00 0.00 0.00 58 1017.5
20260504021553 69 0 0.0 1.0 0.00 0.00 0.00 57 1017.4
20260504021039 69 0 0.0 1.0 0.00 0.00 0.00 57 1017.5
20260504020536 69 206 0.0 1.0 0.00 0.00 0.00 56 1017.4
20260504020109 70 190 0.0 1.0 0.00 0.00 0.00 55 1017.4
20260504015541 70 0 0.0 1.0 0.00 0.00 0.00 55 1017.3
20260504015037 70 0 0.0 1.0 0.00 0.00 0.00 55 1017.2
20260504014549 70 200 0.0 0.0 0.00 0.00 0.00 54 1017.3
20260504014038 71 203 0.0 0.0 0.00 0.00 0.00 54 1017.4
20260504013538 71 193 0.0 1.0 0.00 0.00 0.00 53 1017.4
20260504013053 71 0 0.0 1.0 0.00 0.00 0.00 52 1017.3
20260504012537 71 201 0.0 1.0 0.00 0.00 0.00 52 1017.2
20260504012040 72 203 0.0 1.0 0.00 0.00 0.00 51 1017.3
20260504011551 72 0 0.0 1.0 0.00 0.00 0.00 51 1017.2
20260504011037 72 0 0.0 1.0 0.00 0.00 0.00 51 1017.3
20260504010536 73 186 0.0 1.0 0.00 0.00 0.00 50 1017.3
20260504010050 73 188 0.0 1.0 0.00 0.00 0.00 49 1017.3
20260504005537 73 193 0.0 2.0 0.00 0.00 0.00 49 1017.2
20260504005042 74 191 0.0 2.0 0.00 0.00 0.00 48 1017.1
20260504004555 74 158 0.0 2.0 0.00 0.00 0.00 48 1017.3
20260504004038 74 211 0.0 2.0 0.00 0.00 0.00 47 1017.2
20260504003539 75 191 0.0 2.0 0.00 0.00 0.00 47 1017.2
20260504003054 75 197 0.0 2.0 0.00 0.00 0.00 47 1017.3
20260504002539 75 197 1.0 2.0 0.00 0.00 0.00 46 1017.3
20260504002038 76 186 1.0 2.0 0.00 0.00 0.00 46 1017.3
20260504001555 76 198 1.0 3.0 0.00 0.00 0.00 45 1017.3
20260504001037 76 200 1.0 3.0 0.00 0.00 0.00 46 1017.3
20260504000537 76 187 0.0 3.0 0.00 0.00 0.00 45 1017.4
20260504000101 76 172 1.0 3.0 0.00 0.00 0.00 45 1017.4
20260503235538 77 212 0.0 2.0 0.00 0.00 0.00 45 1017.4
20260503235037 77 175 0.0 2.0 0.00 0.00 0.00 44 1017.4
20260503234620 77 205 1.0 4.0 0.00 0.00 0.00 44 1017.4
20260503234038 77 209 1.0 4.0 0.00 0.00 0.00 42 1017.5
20260503233541 77 184 2.0 4.0 0.00 0.00 0.00 42 1017.5
20260503233054 77 0 0.0 3.0 0.00 0.00 0.00 43 1017.5
20260503232538 77 186 1.0 3.0 0.00 0.00 0.00 42 1017.6
20260503232038 78 165 1.0 4.0 0.00 0.00 0.00 42 1017.6
20260503231552 78 120 1.0 4.0 0.00 0.00 0.00 42 1017.5
20260503231039 78 182 1.0 3.0 0.00 0.00 0.00 42 1017.5
20260503230539 78 140 1.0 3.0 0.00 0.00 0.00 42 1017.6
20260503230053 78 165 1.0 2.0 0.00 0.00 0.00 42 1017.6
20260503225536 78 177 0.0 3.0 0.00 0.00 0.00 41 1017.5
20260503225036 78 198 0.0 3.0 0.00 0.00 0.00 42 1017.6
20260503224550 78 203 0.0 3.0 0.00 0.00 0.00 42 1017.6
20260503224037 78 212 1.0 4.0 0.00 0.00 0.00 42 1017.7
20260503223537 78 215 1.0 4.0 0.00 0.00 0.00 40 1017.7
20260503223049 78 177 1.0 4.0 0.00 0.00 0.00 41 1017.8
20260503222538 78 146 1.0 4.0 0.00 0.00 0.00 41 1017.9
20260503222036 79 160 1.0 4.0 0.00 0.00 0.00 41 1017.8
20260503221559 79 233 0.0 5.0 0.00 0.00 0.00 42 1018.0
20260503221036 79 191 1.0 5.0 0.00 0.00 0.00 41 1018.0
20260503220537 79 197 1.0 4.0 0.00 0.00 0.00 40 1018.1
20260503220055 79 197 2.0 4.0 0.00 0.00 0.00 40 1018.2
20260503215538 80 208 1.0 3.0 0.00 0.00 0.00 40 1018.3
20260503215040 80 0 1.0 3.0 0.00 0.00 0.00 41 1018.3
20260503214551 80 189 0.0 4.0 0.00 0.00 0.00 41 1018.4
20260503214040 80 205 0.0 4.0 0.00 0.00 0.00 41 1018.4
20260503213540 80 218 1.0 2.0 0.00 0.00 0.00 41 1018.5
20260503213050 80 203 1.0 2.0 0.00 0.00 0.00 42 1018.5
20260503212541 80 252 0.0 2.0 0.00 0.00 0.00 40 1018.5
20260503212041 80 0 1.0 4.0 0.00 0.00 0.00 42 1018.6
20260503211547 80 168 0.0 4.0 0.00 0.00 0.00 41 1018.6
20260503211040 80 262 1.0 3.0 0.00 0.00 0.00 42 1018.6
20260503210540 80 148 1.0 3.0 0.00 0.00 0.00 41 1018.6
20260503210053 81 243 1.0 3.0 0.00 0.00 0.00 42 1018.8
20260503205537 81 234 0.0 2.0 0.00 0.00 0.00 38 1018.9
20260503205041 81 207 0.0 2.0 0.00 0.00 0.00 38 1019.0
20260503204555 80 252 1.0 4.0 0.00 0.00 0.00 39 1019.1
20260503204037 80 233 0.0 4.0 0.00 0.00 0.00 38 1019.2
20260503203540 80 187 1.0 3.0 0.00 0.00 0.00 40 1019.2
20260503203056 80 0 1.0 3.0 0.00 0.00 0.00 41 1019.4
20260503202542 80 0 1.0 4.0 0.00 0.00 0.00 40 1019.4
20260503202042 80 231 1.0 4.0 0.00 0.00 0.00 42 1019.6
20260503201552 80 195 0.0 4.0 0.00 0.00 0.00 40 1019.6
20260503201040 80 200 1.0 3.0 0.00 0.00 0.00 39 1019.7
20260503200540 81 210 1.0 3.0 0.00 0.00 0.00 40 1019.8
20260503200056 80 252 1.0 4.0 0.00 0.00 0.00 40 1019.9
20260503195544 80 221 1.0 5.0 0.00 0.00 0.00 40 1020.0
20260503195042 80 255 0.0 5.0 0.00 0.00 0.00 39 1020.1
20260503194600 80 141 1.0 4.0 0.00 0.00 0.00 41 1020.2
20260503194039 80 199 1.0 4.0 0.00 0.00 0.00 40 1020.3
20260503193540 80 162 1.0 3.0 0.00 0.00 0.00 42 1020.3
20260503193053 80 207 1.0 3.0 0.00 0.00 0.00 42 1020.4
20260503192538 80 174 0.0 3.0 0.00 0.00 0.00 43 1020.5
20260503192039 80 249 1.0 3.0 0.00 0.00 0.00 40 1020.6
20260503191554 80 226 1.0 5.0 0.00 0.00 0.00 39 1020.6
20260503191042 80 123 1.0 5.0 0.00 0.00 0.00 39 1020.7
20260503190540 81 218 0.0 3.0 0.00 0.00 0.00 39 1020.7
20260503190053 80 216 1.0 4.0 0.00 0.00 0.00 41 1020.8
20260503185540 81 221 1.0 7.0 0.00 0.00 0.00 40 1020.8
20260503185040 81 234 0.0 7.0 0.00 0.00 0.00 39 1020.8
20260503184557 81 293 0.0 7.0 0.00 0.00 0.00 37 1020.9
20260503184041 81 200 1.0 4.0 0.00 0.00 0.00 38 1021.0
20260503183539 81 233 1.0 4.0 0.00 0.00 0.00 36 1021.1
20260503183050 81 134 1.0 4.0 0.00 0.00 0.00 36 1021.2
20260503182538 81 238 1.0 3.0 0.00 0.00 0.00 38 1021.3
20260503182040 81 257 0.0 3.0 0.00 0.00 0.00 40 1021.4
20260503181548 81 243 1.0 4.0 0.00 0.00 0.00 40 1021.6
20260503181040 81 141 1.0 4.0 0.00 0.00 0.00 40 1021.5
20260503180540 81 217 1.0 4.0 0.00 0.00 0.00 41 1021.6
20260503175540 81 185 0.0 2.0 0.00 0.00 0.00 45 1021.8
20260503175040 80 179 1.0 4.0 0.00 0.00 0.00 46 1022.0
20260503174558 80 278 0.0 4.0 0.00 0.00 0.00 45 1022.1
20260503174041 80 210 1.0 4.0 0.00 0.00 0.00 43 1022.1
20260503173538 80 233 1.0 3.0 0.00 0.00 0.00 44 1022.2
20260503173059 80 245 1.0 3.0 0.00 0.00 0.00 44 1022.2
20260503172540 79 293 0.0 3.0 0.00 0.00 0.00 47 1022.4
20260503172038 79 238 1.0 3.0 0.00 0.00 0.00 45 1022.4
20260503171554 79 145 1.0 3.0 0.00 0.00 0.00 47 1022.5
20260503171040 79 184 1.0 3.0 0.00 0.00 0.00 49 1022.7
20260503170539 78 201 0.0 2.0 0.00 0.00 0.00 48 1022.6
20260503150540 72 0 0.0 2.0 0.00 0.00 0.00 56 1022.9
20260503131039 67 0 0.0 0.0 0.00 0.00 0.00 67 1022.5
20260503130542 67 0 0.0 0.0 0.00 0.00 0.00 68 1022.4
20260503110540 53 0 0.0 0.0 0.00 0.00 0.00 86 1021.6
20260503110107 53 0 0.0 0.0 0.00 0.00 0.00 85 1021.4